Location: Follega
(52.8850°N, 5.7362°E)
Time: 03:54:58
(UTC+00:00)

Cosmos 2297 Rocket - Pass Details

Date: 06 October 2020
Orbit: 838 x 845 km, 71.0° (Epoch: 26 October)

Event Time Altitude Azimuth Distance (km) Brightness Sun altitude
Rises 19:48:34 0° 327° (NNW) 3,416 6.3 -25.4°
Reaches altitude 10° 19:51:31 10° 341° (NNW) 2,479 5.2 -25.8°
Maximum altitude 19:56:05 24° 35° (NE) 1,685 3.7 -26.4°
Enters shadow 19:56:18 24° 38° (NE) 1,687 3.6 -26.4°
